,,Stat6,,Stat2,,Stat8,,Stat9,,Stat10,,Wind1,,Wind1,
time,status,PA1M_AVG,status,PR1M_SUM,status,RH1M_AVG,status,SR1M_AVG,status,TA1M_AVG,status,W1dAve1m,status,W1sAve1m,
2009-04-06, 00:00:00,VALID,917.244,VALID,0,VALID,100,VALID,0,VALID,20.0076,VALID,152,VALID,0,
2009-04-06, 00:01:00,VALID,917.229,VALID,0,VALID,100,VALID,-0.0169808,VALID,19.9978,VALID,136,VALID,0.116616,
2009-04-06, 00:02:00,VALID,917.204,VALID,0,VALID,100,VALID,0.0169808,VALID,19.9881,VALID,111,VALID,0,
2009-04-06, 00:03:00,VALID,917.213,VALID,0,VALID,100,VALID,0,VALID,19.9818,VALID,114,VALID,0,
2009-04-06, 00:04:00,VALID,917.193,VALID,0,VALID,100,VALID,0,VALID,19.9719,VALID,111,VALID,0,
2009-04-06, 00:05:00,VALID,917.192,VALID,0,VALID,100,VALID,0.0169808,VALID,19.9654,VALID,119,VALID,0,
2009-04-06, 00:06:00,VALID,917.19,VALID,0,VALID,100,VALID,0,VALID,19.9524,VALID,119,VALID,0,
2009-04-06, 00:07:00,VALID,917.178,VALID,0,VALID,100,VALID,0,VALID,19.9429,VALID,119,VALID,0,
2009-04-06, 00:08:00,VALID,917.169,VALID,0,VALID,100,VALID,-0.0339617,VALID,19.9332,VALID,119,VALID,0,
2009-04-06, 00:09:00,VALID,917.156,VALID,0,VALID,100,VALID,-0.0169808,VALID,19.9402,VALID,119,VALID,0,
2009-04-06, 00:10:00,VALID,917.15,VALID,0,VALID,100,VALID,-0.0679233,VALID,19.9372,VALID,119,VALID,0,
2009-04-06, 00:11:00,VALID,917.156,VALID,0,VALID,100,VALID,-0.0509425,VALID,19.9207,VALID,119,VALID,0,
2009-04-06, 00:12:00,VALID,917.14,VALID,0,VALID,100,VALID,-0.0339617,VALID,19.9204,VALID,119,VALID,0,
2009-04-06, 00:13:00,VALID,917.147,VALID,0,VALID,100,VALID,-0.0679233,VALID,19.915,VALID,119,VALID,0,
2009-04-06, 00:14:00,VALID,917.138,VALID,0,VALID,100,VALID,-0.0679233,VALID,19.895,VALID,119,VALID,0,
2009-04-06, 00:15:00,VALID,917.126,VALID,0,VALID,100,VALID,-0.0339617,VALID,19.8952,VALID,119,VALID,0,
2009-04-06, 00:16:00,VALID,917.107,VALID,0,VALID,100,VALID,-0.0679233,VALID,19.8915,VALID,120,VALID,0,
2009-04-06, 00:17:00,VALID,917.082,VALID,0,VALID,100,VALID,-0.101885,VALID,19.869,VALID,141,VALID,0,
2009-04-06, 00:18:00,VALID,917.045,VALID,0,VALID,100,VALID,-0.0509425,VALID,19.8693,VALID,142,VALID,0,
2009-04-06, 00:19:00,VALID,917.008,VALID,0,VALID,100,VALID,-0.0679233,VALID,19.869,VALID,145,VALID,0,
2009-04-06, 00:20:00,VALID,916.99,VALID,0,VALID,100,VALID,-0.0339617,VALID,19.875,VALID,147,VALID,0,
2009-04-06, 00:21:00,VALID,916.965,VALID,0,VALID,100,VALID,-0.0169808,VALID,19.872,VALID,150,VALID,0.0911458,
2009-04-06, 00:22:00,VALID,916.945,VALID,0,VALID,100,VALID,-0.0509425,VALID,19.8655,VALID,153,VALID,0.0394436,
2009-04-06, 00:23:00,VALID,916.912,VALID,0,VALID,100,VALID,-0.0679233,VALID,19.8723,VALID,158,VALID,0.162574,
2009-04-06, 00:24:00,VALID,916.894,VALID,0,VALID,100,VALID,-0.0169808,VALID,19.862,VALID,155,VALID,0,
2009-04-06, 00:25:00,VALID,916.863,VALID,0,VALID,100,VALID,-0.0509425,VALID,19.8593,VALID,151,VALID,0,
2009-04-06, 00:26:00,VALID,916.834,VALID,0,VALID,100,VALID,-0.0509425,VALID,19.8526,VALID,154,VALID,0.0335582,
2009-04-06, 00:27:00,VALID,916.801,VALID,0,VALID,100,VALID,0,VALID,19.8558,VALID,156,VALID,0.0131392,
2009-04-06, 00:28:00,VALID,916.786,VALID,0,VALID,100,VALID,-0.0169808,VALID,19.8588,VALID,159,VALID,0,
2009-04-06, 00:29:00,VALID,916.774,VALID,0,VALID,100,VALID,-0.0509425,VALID,19.8456,VALID,148,VALID,0.092731,
2009-04-06, 00:30:00,VALID,916.752,VALID,0,VALID,100,VALID,-0.0339617,VALID,19.8528,VALID,152,VALID,0.0815549,
2009-04-06, 00:31:00,VALID,916.751,VALID,0,VALID,100,VALID,-0.0679233,VALID,19.8421,VALID,165,VALID,0.00241815,
2009-04-06, 00:32:00,VALID,916.746,VALID,0,VALID,100,VALID,-0.0169808,VALID,19.8488,VALID,142,VALID,0.0385174,
2009-04-06, 00:33:00,VALID,916.746,VALID,0,VALID,100,VALID,-0.0509425,VALID,19.8431,VALID,133,VALID,0.341087,
2009-04-06, 00:34:00,VALID,916.743,VALID,0,VALID,100,VALID,-0.0339617,VALID,19.8296,VALID,132,VALID,0.399346,
2009-04-06, 00:35:00,VALID,916.739,VALID,0,VALID,100,VALID,0,VALID,19.8164,VALID,110,VALID,0.0423018,
2009-04-06, 00:36:00,VALID,916.733,VALID,0,VALID,100,VALID,-0.0169808,VALID,19.8131,VALID,121,VALID,0.270712,
2009-04-06, 00:37:00,VALID,916.71,VALID,0,VALID,100,VALID,-0.0169808,VALID,19.8199,VALID,130,VALID,0.00078125,
2009-04-06, 00:38:00,VALID,916.696,VALID,0,VALID,100,VALID,-0.0169808,VALID,19.8396,VALID,138,VALID,0,
2009-04-06, 00:39:00,VALID,916.678,VALID,0,VALID,100,VALID,-0.0169808,VALID,19.8461,VALID,148,VALID,0,
2009-04-06, 00:40:00,VALID,916.669,VALID,0,VALID,100,VALID,0,VALID,19.8486,VALID,148,VALID,0,
2009-04-06, 00:41:00,VALID,916.665,VALID,0,VALID,100,VALID,-0.0169808,VALID,19.865,VALID,158,VALID,0,
2009-04-06, 00:42:00,VALID,916.655,VALID,0,VALID,100,VALID,0,VALID,19.888,VALID,164,VALID,0,
2009-04-06, 00:43:00,VALID,916.649,VALID,0,VALID,100,VALID,-0.0339617,VALID,19.9042,VALID,155,VALID,0.00342988,
2009-04-06, 00:44:00,VALID,916.644,VALID,0,VALID,100,VALID,-0.0169808,VALID,19.9107,VALID,145,VALID,0,
2009-04-06, 00:45:00,VALID,916.627,VALID,0,VALID,100,VALID,-0.0339617,VALID,19.908,VALID,147,VALID,0.0306784,
2009-04-06, 00:46:00,VALID,916.625,VALID,0,VALID,100,VALID,-0.0339617,VALID,19.9007,VALID,142,VALID,0,
2009-04-06, 00:47:00,VALID,916.621,VALID,0,VALID,100,VALID,-0.0169808,VALID,19.9137,VALID,147,VALID,0,
2009-04-06, 00:48:00,VALID,916.603,VALID,0,VALID,100,VALID,-0.0339617,VALID,19.9005,VALID,151,VALID,0,
2009-04-06, 00:49:00,VALID,916.588,VALID,0,VALID,100,VALID,-0.0169808,VALID,19.914,VALID,144,VALID,0,
2009-04-06, 00:50:00,VALID,916.567,VALID,0,VALID,100,VALID,-0.0169808,VALID,19.9005,VALID,147,VALID,0.0114462,
2009-04-06, 00:51:00,VALID,916.568,VALID,0,VALID,100,VALID,-0.0509425,VALID,19.8972,VALID,148,VALID,0.0193452,
2009-04-06, 00:52:00,VALID,916.547,VALID,0,VALID,100,VALID,-0.0169808,VALID,19.9112,VALID,142,VALID,0.0704901,
2009-04-06, 00:53:00,VALID,916.55,VALID,0,VALID,100,VALID,-0.0169808,VALID,19.917,VALID,143,VALID,0.198475,
2009-04-06, 00:54:00,VALID,916.542,VALID,0,VALID,100,VALID,-0.0339617,VALID,19.9307,VALID,153,VALID,0,
2009-04-06, 00:55:00,VALID,916.537,VALID,0,VALID,100,VALID,-0.0339617,VALID,19.9491,VALID,150,VALID,0,
2009-04-06, 00:56:00,VALID,916.538,VALID,0,VALID,100,VALID,-0.0509425,VALID,19.9626,VALID,145,VALID,0,
2009-04-06, 00:57:00,VALID,916.523,VALID,0,VALID,100,VALID,-0.0339617,VALID,19.9656,VALID,146,VALID,0,
2009-04-06, 00:58:00,VALID,916.532,VALID,0,VALID,100,VALID,-0.0169808,VALID,19.9624,VALID,141,VALID,0,
2009-04-06, 00:59:00,VALID,916.529,VALID,0,VALID,100,VALID,0,VALID,19.9756,VALID,136,VALID,0,
2009-04-06, 01:00:00,VALID,916.525,VALID,0,VALID,100,VALID,-0.0339617,VALID,19.9724,VALID,125,VALID,0,
2009-04-06, 01:01:00,VALID,916.518,VALID,0,VALID,100,VALID,0,VALID,19.9589,VALID,110,VALID,0,
2009-04-06, 01:02:00,VALID,916.525,VALID,0,VALID,100,VALID,0,VALID,19.9524,VALID,100,VALID,0,
2009-04-06, 01:03:00,VALID,916.521,VALID,0,VALID,100,VALID,0,VALID,19.9362,VALID,96,VALID,0,
2009-04-06, 01:04:00,VALID,916.512,VALID,0,VALID,100,VALID,-0.0509425,VALID,19.9369,VALID,96,VALID,0,
2009-04-06, 01:05:00,VALID,916.496,VALID,0,VALID,100,VALID,-0.0339617,VALID,19.9367,VALID,106,VALID,0,
2009-04-06, 01:06:00,VALID,916.469,VALID,0,VALID,100,VALID,0,VALID,19.9462,VALID,121,VALID,0,
2009-04-06, 01:07:00,VALID,916.47,VALID,0,VALID,100,VALID,-0.0169808,VALID,19.9491,VALID,122,VALID,0,
2009-04-06, 01:08:00,VALID,916.459,VALID,0,VALID,100,VALID,0,VALID,19.9619,VALID,123,VALID,0,
2009-04-06, 01:09:00,VALID,916.45,VALID,0,VALID,100,VALID,0.101885,VALID,19.9676,VALID,126,VALID,0,
2009-04-06, 01:10:00,VALID,916.444,VALID,0,VALID,100,VALID,0.0679233,VALID,19.9703,VALID,129,VALID,0,
2009-04-06, 01:11:00,VALID,916.456,VALID,0,VALID,100,VALID,0.0849042,VALID,19.9701,VALID,120,VALID,0,
2009-04-06, 01:12:00,VALID,916.453,VALID,0,VALID,100,VALID,0.0679233,VALID,19.9801,VALID,115,VALID,0,
2009-04-06, 01:13:00,VALID,916.454,VALID,0,VALID,100,VALID,0.0849042,VALID,19.9736,VALID,112,VALID,0,
2009-04-06, 01:14:00,VALID,916.433,VALID,0,VALID,100,VALID,0.0849042,VALID,19.9738,VALID,107,VALID,0,
2009-04-06, 01:15:00,VALID,916.414,VALID,0,VALID,100,VALID,0.0679233,VALID,19.9671,VALID,107,VALID,0,
2009-04-06, 01:16:00,VALID,916.4,VALID,0,VALID,100,VALID,0.0339617,VALID,19.9679,VALID,119,VALID,0,
2009-04-06, 01:17:00,VALID,916.386,VALID,0,VALID,100,VALID,0.0509425,VALID,19.9808,VALID,119,VALID,0,
2009-04-06, 01:18:00,VALID,916.371,VALID,0,VALID,100,VALID,0.0679233,VALID,19.9674,VALID,119,VALID,0,
2009-04-06, 01:19:00,VALID,916.357,VALID,0,VALID,100,VALID,0.0679233,VALID,19.9674,VALID,119,VALID,0,
2009-04-06, 01:20:00,VALID,916.338,VALID,0,VALID,100,VALID,0.0679233,VALID,19.9711,VALID,119,VALID,0,
2009-04-06, 01:21:00,VALID,916.311,VALID,0,VALID,100,VALID,0.0679233,VALID,19.9606,VALID,119,VALID,0,
2009-04-06, 01:22:00,VALID,916.281,VALID,0,VALID,100,VALID,0.0679233,VALID,19.9641,VALID,119,VALID,0,
2009-04-06, 01:23:00,VALID,916.281,VALID,0,VALID,100,VALID,0.0509425,VALID,19.9511,VALID,118,VALID,0,
2009-04-06, 01:24:00,VALID,916.249,VALID,0,VALID,100,VALID,-0.0509425,VALID,19.9656,VALID,118,VALID,0,
2009-04-06, 01:25:00,VALID,916.239,VALID,0,VALID,100,VALID,-0.0509425,VALID,19.9589,VALID,112,VALID,0,
2009-04-06, 01:26:00,VALID,916.224,VALID,0,VALID,100,VALID,-0.0509425,VALID,19.9496,VALID,105,VALID,0,
2009-04-06, 01:27:00,VALID,916.211,VALID,0,VALID,100,VALID,-0.0339617,VALID,19.9429,VALID,105,VALID,0,
2009-04-06, 01:28:00,VALID,916.198,VALID,0,VALID,100,VALID,-0.0169808,VALID,19.9364,VALID,104,VALID,0,
2009-04-06, 01:29:00,VALID,916.178,VALID,0,VALID,100,VALID,-0.0169808,VALID,19.9329,VALID,104,VALID,0,
2009-04-06, 01:30:00,VALID,916.142,VALID,0,VALID,100,VALID,-0.0339617,VALID,19.9464,VALID,131,VALID,0,
2009-04-06, 01:31:00,VALID,916.128,VALID,0,VALID,100,VALID,-0.0169808,VALID,19.9526,VALID,131,VALID,0,
2009-04-06, 01:32:00,VALID,916.103,VALID,0,VALID,100,VALID,-0.0509425,VALID,19.9721,VALID,124,VALID,0,
2009-04-06, 01:33:00,VALID,916.078,VALID,0,VALID,100,VALID,-0.0849042,VALID,19.9916,VALID,124,VALID,0,
2009-04-06, 01:34:00,VALID,916.057,VALID,0,VALID,100,VALID,-0.0509425,VALID,19.9789,VALID,124,VALID,0,
2009-04-06, 01:35:00,VALID,916.033,VALID,0,VALID,100,VALID,-0.0169808,VALID,19.9916,VALID,98,VALID,0,
2009-04-06, 01:36:00,VALID,916.006,VALID,0,VALID,100,VALID,-0.0339617,VALID,19.9981,VALID,68,VALID,0,
2009-04-06, 01:37:00,VALID,915.978,VALID,0,VALID,100,VALID,-0.0679233,VALID,19.9821,VALID,42,VALID,0,
2009-04-06, 01:38:00,VALID,915.951,VALID,0,VALID,100,VALID,-0.0339617,VALID,19.9589,VALID,42,VALID,0,
2009-04-06, 01:39:00,VALID,915.918,VALID,0,VALID,100,VALID,-0.0169808,VALID,19.9654,VALID,42,VALID,0,
2009-04-06, 01:40:00,VALID,915.895,VALID,0,VALID,100,VALID,-0.0169808,VALID,19.9524,VALID,42,VALID,0,
2009-04-06, 01:41:00,VALID,915.858,VALID,0,VALID,100,VALID,0,VALID,19.9556,VALID,42,VALID,0,
2009-04-06, 01:42:00,VALID,915.841,VALID,0,VALID,100,VALID,-0.0509425,VALID,19.9394,VALID,42,VALID,0,
2009-04-06, 01:43:00,VALID,915.802,VALID,0,VALID,100,VALID,0,VALID,19.9359,VALID,42,VALID,0,
2009-04-06, 01:44:00,VALID,915.778,VALID,0,VALID,100,VALID,0.0169808,VALID,19.9459,VALID,42,VALID,0,
2009-04-06, 01:45:00,VALID,915.752,VALID,0,VALID,100,VALID,0,VALID,19.9422,VALID,42,VALID,0,
2009-04-06, 01:46:00,VALID,915.746,VALID,0,VALID,100,VALID,0,VALID,19.9524,VALID,42,VALID,0,
2009-04-06, 01:47:00,VALID,915.723,VALID,0,VALID,100,VALID,-0.0169808,VALID,19.9786,VALID,42,VALID,0,
2009-04-06, 01:48:00,VALID,915.691,VALID,0,VALID,100,VALID,0,VALID,19.9721,VALID,42,VALID,0,
2009-04-06, 01:49:00,VALID,915.675,VALID,0,VALID,100,VALID,-0.0509425,VALID,19.9591,VALID,42,VALID,0,
2009-04-06, 01:50:00,VALID,915.662,VALID,0,VALID,100,VALID,-0.0339617,VALID,19.9462,VALID,42,VALID,0,
2009-04-06, 01:51:00,VALID,915.64,VALID,0,VALID,100,VALID,-0.0679233,VALID,19.9337,VALID,42,VALID,0,
2009-04-06, 01:52:00,VALID,915.616,VALID,0,VALID,100,VALID,-0.0509425,VALID,19.9524,VALID,42,VALID,0,
2009-04-06, 01:53:00,VALID,915.606,VALID,0,VALID,100,VALID,-0.0339617,VALID,19.9619,VALID,18,VALID,0,
2009-04-06, 01:54:00,VALID,915.576,VALID,0,VALID,100,VALID,-0.0169808,VALID,19.9394,VALID,336,VALID,0,
2009-04-06, 01:55:00,VALID,915.56,VALID,0,VALID,100,VALID,-0.0339617,VALID,19.9329,VALID,328,VALID,0,
2009-04-06, 01:56:00,VALID,915.541,VALID,0,VALID,100,VALID,-0.0339617,VALID,19.9232,VALID,328,VALID,0,
2009-04-06, 01:57:00,VALID,915.52,VALID,0,VALID,100,VALID,0,VALID,19.907,VALID,328,VALID,0,
2009-04-06, 01:58:00,VALID,915.493,VALID,0,VALID,100,VALID,-0.0169808,VALID,19.8972,VALID,328,VALID,0,
2009-04-06, 01:59:00,VALID,915.481,VALID,0,VALID,100,VALID,-0.0509425,VALID,19.917,VALID,328,VALID,0,
2009-04-06, 02:00:00,VALID,915.471,VALID,0,VALID,100,VALID,-0.0339617,VALID,19.9427,VALID,328,VALID,0,
2009-04-06, 02:01:00,VALID,915.449,VALID,0,VALID,100,VALID,-0.0509425,VALID,19.9561,VALID,328,VALID,0,
2009-04-06, 02:02:00,VALID,915.433,VALID,0,VALID,100,VALID,-0.0509425,VALID,19.9005,VALID,328,VALID,0,
2009-04-06, 02:03:00,VALID,915.424,VALID,0,VALID,100,VALID,-0.0849042,VALID,19.8618,VALID,328,VALID,0,
2009-04-06, 02:04:00,VALID,915.417,VALID,0,VALID,100,VALID,-0.101885,VALID,19.8498,VALID,328,VALID,0,
2009-04-06, 02:05:00,VALID,915.403,VALID,0,VALID,100,VALID,-0.0679233,VALID,19.8301,VALID,328,VALID,0,
2009-04-06, 02:06:00,VALID,915.394,VALID,0,VALID,100,VALID,-0.0169808,VALID,19.8194,VALID,328,VALID,0,
2009-04-06, 02:07:00,VALID,915.389,VALID,0,VALID,100,VALID,-0.0339617,VALID,19.8263,VALID,328,VALID,0,
2009-04-06, 02:08:00,VALID,915.411,VALID,0,VALID,100,VALID,-0.0169808,VALID,19.8261,VALID,328,VALID,0,
2009-04-06, 02:09:00,VALID,915.411,VALID,0,VALID,100,VALID,-0.0339617,VALID,19.8161,VALID,328,VALID,0,
2009-04-06, 02:10:00,VALID,915.428,VALID,0,VALID,100,VALID,0,VALID,19.8056,VALID,328,VALID,0,
2009-04-06, 02:11:00,VALID,915.426,VALID,0,VALID,100,VALID,0,VALID,19.7924,VALID,328,VALID,0,
2009-04-06, 02:12:00,VALID,915.418,VALID,0,VALID,100,VALID,0.0339617,VALID,19.7792,VALID,217,VALID,0,
2009-04-06, 02:13:00,VALID,915.403,VALID,0,VALID,100,VALID,0.0169808,VALID,19.7824,VALID,203,VALID,0,
2009-04-06, 02:14:00,VALID,915.395,VALID,0,VALID,100,VALID,0.0169808,VALID,19.7956,VALID,196,VALID,0,
2009-04-06, 02:15:00,VALID,915.385,VALID,0,VALID,100,VALID,0,VALID,19.7794,VALID,194,VALID,0,
2009-04-06, 02:16:00,VALID,915.359,VALID,0,VALID,100,VALID,0.0339617,VALID,19.7764,VALID,194,VALID,0,
2009-04-06, 02:17:00,VALID,915.354,VALID,0,VALID,100,VALID,0,VALID,19.7834,VALID,194,VALID,0,
2009-04-06, 02:18:00,VALID,915.338,VALID,0,VALID,100,VALID,0.0339617,VALID,19.7961,VALID,192,VALID,0,
2009-04-06, 02:19:00,VALID,915.315,VALID,0,VALID,100,VALID,0.0509425,VALID,19.7864,VALID,189,VALID,0,
2009-04-06, 02:20:00,VALID,915.3,VALID,0,VALID,100,VALID,0,VALID,19.7762,VALID,187,VALID,0,
2009-04-06, 02:21:00,VALID,915.276,VALID,0,VALID,100,VALID,-0.0169808,VALID,19.7862,VALID,184,VALID,0,
2009-04-06, 02:22:00,VALID,915.253,VALID,0,VALID,100,VALID,0.0339617,VALID,19.7926,VALID,183,VALID,0,
2009-04-06, 02:23:00,VALID,915.219,VALID,0,VALID,100,VALID,-0.0169808,VALID,19.7899,VALID,183,VALID,0,
2009-04-06, 02:24:00,VALID,915.202,VALID,0,VALID,100,VALID,0,VALID,19.7797,VALID,183,VALID,0,
2009-04-06, 02:25:00,VALID,915.176,VALID,0,VALID,100,VALID,0,VALID,19.7864,VALID,183,VALID,0,
2009-04-06, 02:26:00,VALID,915.171,VALID,0,VALID,100,VALID,0.0169808,VALID,19.7762,VALID,183,VALID,0,
2009-04-06, 02:27:00,VALID,915.161,VALID,0,VALID,100,VALID,0,VALID,19.7732,VALID,183,VALID,0,
2009-04-06, 02:28:00,VALID,915.155,VALID,0,VALID,100,VALID,0,VALID,19.7764,VALID,183,VALID,0,
2009-04-06, 02:29:00,VALID,915.136,VALID,0,VALID,100,VALID,0.0339617,VALID,19.7867,VALID,183,VALID,0,
2009-04-06, 02:30:00,VALID,915.141,VALID,0,VALID,100,VALID,0,VALID,19.7897,VALID,183,VALID,0,
2009-04-06, 02:31:00,VALID,915.13,VALID,0,VALID,100,VALID,-0.0339617,VALID,19.7802,VALID,183,VALID,0,
2009-04-06, 02:32:00,VALID,915.128,VALID,0,VALID,100,VALID,0,VALID,19.754,VALID,183,VALID,0,
2009-04-06, 02:33:00,VALID,915.117,VALID,0,VALID,100,VALID,0,VALID,19.7407,VALID,183,VALID,0,
2009-04-06, 02:34:00,VALID,915.107,VALID,0,VALID,100,VALID,0.0169808,VALID,19.7108,VALID,180,VALID,0,
2009-04-06, 02:35:00,VALID,915.102,VALID,0,VALID,100,VALID,-0.0169808,VALID,19.728,VALID,176,VALID,0,
2009-04-06, 02:36:00,VALID,915.09,VALID,0,VALID,100,VALID,-0.0169808,VALID,19.7118,VALID,176,VALID,0,
2009-04-06, 02:37:00,VALID,915.07,VALID,0,VALID,100,VALID,0.0169808,VALID,19.7115,VALID,176,VALID,0,
2009-04-06, 02:38:00,VALID,915.066,VALID,0,VALID,100,VALID,0.0169808,VALID,19.7253,VALID,176,VALID,0,
2009-04-06, 02:39:00,VALID,915.071,VALID,0,VALID,100,VALID,-0.118866,VALID,19.726,VALID,167,VALID,0,
2009-04-06, 02:40:00,VALID,915.056,VALID,0,VALID,100,VALID,-0.101885,VALID,19.7195,VALID,160,VALID,0,
2009-04-06, 02:41:00,VALID,915.049,VALID,0,VALID,100,VALID,-0.101885,VALID,19.7093,VALID,160,VALID,0,
2009-04-06, 02:42:00,VALID,915.05,VALID,0,VALID,100,VALID,-0.101885,VALID,19.7128,VALID,160,VALID,0,
2009-04-06, 02:43:00,VALID,915.064,VALID,0,VALID,100,VALID,-0.101885,VALID,19.7225,VALID,162,VALID,0,
2009-04-06, 02:44:00,VALID,915.071,VALID,0,VALID,100,VALID,-0.101885,VALID,19.716,VALID,171,VALID,0,
2009-04-06, 02:45:00,VALID,915.06,VALID,0,VALID,100,VALID,-0.101885,VALID,19.7263,VALID,172,VALID,0,
2009-04-06, 02:46:00,VALID,915.082,VALID,0,VALID,100,VALID,-0.0849042,VALID,19.7395,VALID,170,VALID,0,
2009-04-06, 02:47:00,VALID,915.087,VALID,0,VALID,100,VALID,-0.101885,VALID,19.7492,VALID,166,VALID,0,
2009-04-06, 02:48:00,VALID,915.106,VALID,0,VALID,100,VALID,-0.101885,VALID,19.7325,VALID,162,VALID,0,
2009-04-06, 02:49:00,VALID,915.115,VALID,0,VALID,100,VALID,-0.0509425,VALID,19.7028,VALID,153,VALID,0,
2009-04-06, 02:50:00,VALID,915.105,VALID,0,VALID,100,VALID,-0.101885,VALID,19.6738,VALID,133,VALID,0,
2009-04-06, 02:51:00,VALID,915.102,VALID,0,VALID,100,VALID,-0.118866,VALID,19.6616,VALID,124,VALID,0,
2009-04-06, 02:52:00,VALID,915.093,VALID,0,VALID,100,VALID,-0.118866,VALID,19.6484,VALID,124,VALID,0,
2009-04-06, 02:53:00,VALID,915.081,VALID,0,VALID,100,VALID,-0.0679233,VALID,19.6481,VALID,124,VALID,0,
2009-04-06, 02:54:00,VALID,915.073,VALID,0,VALID,100,VALID,0,VALID,19.6534,VALID,124,VALID,0,
2009-04-06, 02:55:00,VALID,915.068,VALID,0,VALID,100,VALID,-0.0169808,VALID,19.6696,VALID,124,VALID,0,
2009-04-06, 02:56:00,VALID,915.06,VALID,0,VALID,100,VALID,-0.0339617,VALID,19.6753,VALID,124,VALID,0,
2009-04-06, 02:57:00,VALID,915.059,VALID,0,VALID,100,VALID,0,VALID,19.6893,VALID,124,VALID,0,
2009-04-06, 02:58:00,VALID,915.057,VALID,0,VALID,100,VALID,0,VALID,19.6953,VALID,124,VALID,0,
2009-04-06, 02:59:00,VALID,915.059,VALID,0,VALID,100,VALID,0,VALID,19.6951,VALID,124,VALID,0,
2009-04-06, 03:00:00,VALID,915.058,VALID,0,VALID,100,VALID,0,VALID,19.7175,VALID,124,VALID,0,
2009-04-06, 03:01:00,VALID,915.06,VALID,0,VALID,100,VALID,0.0169808,VALID,19.724,VALID,124,VALID,0,
2009-04-06, 03:02:00,VALID,915.051,VALID,0,VALID,100,VALID,0,VALID,19.7335,VALID,124,VALID,0,
2009-04-06, 03:03:00,VALID,915.045,VALID,0,VALID,100,VALID,-0.0169808,VALID,19.7342,VALID,124,VALID,0,
2009-04-06, 03:04:00,VALID,915.032,VALID,0,VALID,100,VALID,0.0169808,VALID,19.724,VALID,124,VALID,0,
2009-04-06, 03:05:00,VALID,915.036,VALID,0,VALID,100,VALID,0,VALID,19.7372,VALID,124,VALID,0,
2009-04-06, 03:06:00,VALID,915.018,VALID,0,VALID,100,VALID,0.0169808,VALID,19.7505,VALID,124,VALID,0,
2009-04-06, 03:07:00,VALID,915.007,VALID,0,VALID,100,VALID,0.0169808,VALID,19.7659,VALID,124,VALID,0,
2009-04-06, 03:08:00,VALID,915.009,VALID,0,VALID,100,VALID,-0.0169808,VALID,19.7902,VALID,88,VALID,0,
2009-04-06, 03:09:00,VALID,914.999,VALID,0,VALID,100,VALID,-0.101885,VALID,19.7922,VALID,72,VALID,0,
2009-04-06, 03:10:00,VALID,915.004,VALID,0,VALID,100,VALID,-0.118866,VALID,19.7957,VALID,72,VALID,0,
2009-04-06, 03:11:00,VALID,915.006,VALID,0,VALID,100,VALID,-0.135847,VALID,19.7984,VALID,72,VALID,0,
2009-04-06, 03:12:00,VALID,915.012,VALID,0,VALID,100,VALID,-0.118866,VALID,19.8051,VALID,72,VALID,0,
2009-04-06, 03:13:00,VALID,915.014,VALID,0,VALID,100,VALID,-0.118866,VALID,19.7922,VALID,72,VALID,0,
2009-04-06, 03:14:00,VALID,915.023,VALID,0,VALID,100,VALID,-0.135847,VALID,19.7794,VALID,72,VALID,0,
2009-04-06, 03:15:00,VALID,915.039,VALID,0,VALID,100,VALID,-0.101885,VALID,19.7692,VALID,72,VALID,0,
2009-04-06, 03:16:00,VALID,915.052,VALID,0,VALID,100,VALID,-0.118866,VALID,19.7694,VALID,72,VALID,0,
2009-04-06, 03:17:00,VALID,915.077,VALID,0,VALID,100,VALID,-0.118866,VALID,19.7659,VALID,72,VALID,0,
2009-04-06, 03:18:00,VALID,915.076,VALID,0,VALID,100,VALID,-0.135847,VALID,19.7952,VALID,72,VALID,0,
2009-04-06, 03:19:00,VALID,915.08,VALID,0,VALID,100,VALID,-0.101885,VALID,19.7919,VALID,62,VALID,0,
2009-04-06, 03:20:00,VALID,915.08,VALID,0,VALID,100,VALID,-0.118866,VALID,19.7789,VALID,42,VALID,0,
2009-04-06, 03:21:00,VALID,915.069,VALID,0,VALID,100,VALID,-0.0849042,VALID,19.7692,VALID,42,VALID,0,
2009-04-06, 03:22:00,VALID,915.075,VALID,0,VALID,100,VALID,-0.101885,VALID,19.7854,VALID,41,VALID,0,
2009-04-06, 03:23:00,VALID,915.066,VALID,0,VALID,100,VALID,-0.101885,VALID,19.7884,VALID,38,VALID,0,
2009-04-06, 03:24:00,VALID,915.06,VALID,0,VALID,100,VALID,-0.0339617,VALID,19.7939,VALID,38,VALID,0,
2009-04-06, 03:25:00,VALID,915.063,VALID,0,VALID,100,VALID,-0.0169808,VALID,19.7872,VALID,38,VALID,0,
2009-04-06, 03:26:00,VALID,915.056,VALID,0,VALID,100,VALID,-0.0169808,VALID,19.7839,VALID,38,VALID,0,
2009-04-06, 03:27:00,VALID,915.071,VALID,0,VALID,100,VALID,0,VALID,19.7941,VALID,38,VALID,0,
2009-04-06, 03:28:00,VALID,915.071,VALID,0,VALID,100,VALID,-0.0169808,VALID,19.7774,VALID,38,VALID,0,
2009-04-06, 03:29:00,VALID,915.073,VALID,0,VALID,100,VALID,-0.0679233,VALID,19.758,VALID,38,VALID,0,
2009-04-06, 03:30:00,VALID,915.066,VALID,0,VALID,100,VALID,-0.0169808,VALID,19.7457,VALID,38,VALID,0,
2009-04-06, 03:31:00,VALID,915.064,VALID,0,VALID,100,VALID,-0.0169808,VALID,19.7193,VALID,38,VALID,0,
2009-04-06, 03:32:00,VALID,915.058,VALID,0,VALID,100,VALID,-0.0169808,VALID,19.7068,VALID,38,VALID,0,
2009-04-06, 03:33:00,VALID,915.051,VALID,0,VALID,100,VALID,-0.0169808,VALID,19.703,VALID,38,VALID,0,
2009-04-06, 03:34:00,VALID,915.067,VALID,0,VALID,100,VALID,0,VALID,19.6896,VALID,38,VALID,0,
2009-04-06, 03:35:00,VALID,915.052,VALID,0,VALID,100,VALID,-0.0169808,VALID,19.7135,VALID,38,VALID,0,
2009-04-06, 03:36:00,VALID,915.046,VALID,0,VALID,100,VALID,-0.0679233,VALID,19.7098,VALID,38,VALID,0,
2009-04-06, 03:37:00,VALID,915.032,VALID,0,VALID,100,VALID,-0.0169808,VALID,19.7158,VALID,38,VALID,0,
2009-04-06, 03:38:00,VALID,915.023,VALID,0,VALID,100,VALID,-0.0339617,VALID,19.729,VALID,38,VALID,0,
2009-04-06, 03:39:00,VALID,915.025,VALID,0,VALID,100,VALID,-0.0339617,VALID,19.7357,VALID,38,VALID,0,
2009-04-06, 03:40:00,VALID,915.011,VALID,0,VALID,100,VALID,-0.0509425,VALID,19.7323,VALID,38,VALID,0,
2009-04-06, 03:41:00,VALID,914.997,VALID,0,VALID,100,VALID,-0.0339617,VALID,19.7188,VALID,38,VALID,0,
2009-04-06, 03:42:00,VALID,914.979,VALID,0,VALID,100,VALID,-0.0509425,VALID,19.7098,VALID,38,VALID,0,
2009-04-06, 03:43:00,VALID,914.972,VALID,0,VALID,100,VALID,-0.0339617,VALID,19.6903,VALID,38,VALID,0,
2009-04-06, 03:44:00,VALID,914.951,VALID,0,VALID,100,VALID,-0.0169808,VALID,19.6836,VALID,38,VALID,0,
2009-04-06, 03:45:00,VALID,914.95,VALID,0,VALID,100,VALID,-0.0679233,VALID,19.6741,VALID,38,VALID,0,
2009-04-06, 03:46:00,VALID,914.944,VALID,0,VALID,100,VALID,-0.0679233,VALID,19.6584,VALID,38,VALID,0,
2009-04-06, 03:47:00,VALID,914.94,VALID,0,VALID,100,VALID,-0.0509425,VALID,19.6129,VALID,38,VALID,0,
2009-04-06, 03:48:00,VALID,914.961,VALID,0,VALID,100,VALID,-0.0679233,VALID,19.5997,VALID,38,VALID,0,
2009-04-06, 03:49:00,VALID,914.967,VALID,0,VALID,100,VALID,-0.0509425,VALID,19.5835,VALID,38,VALID,0,
2009-04-06, 03:50:00,VALID,914.953,VALID,0,VALID,100,VALID,-0.0169808,VALID,19.5371,VALID,41,VALID,0,
2009-04-06, 03:51:00,VALID,914.945,VALID,0,VALID,100,VALID,-0.0169808,VALID,19.5311,VALID,41,VALID,0,